Dallas/Ft Worth, TX

11:15 AM CDT on July 27, 2017 (GMT -0500)
Dallas-Fort Worth International

Weather History for KDFW - March, 2013

Change the Weather History Date:

Thursday, March 7, 2013

  Actual Average Record
Temperature  
Mean Temperature 55 °F 55 °F  
Max Temperature 72 °F 66 °F 90 °F (1911)
Min Temperature 38 °F 45 °F 20 °F (1989)
Degree Days  
Heating Degree Days 10 10  
Month to date heating degree days 97 79  
Since 1 July heating degree days 1687 2011  
Cooling Degree Days 0 1  
Month to date cooling degree days 7 5  
Year to date cooling degree days 19 12  
Growing Degree Days 4 (Base 50)    
Moisture  
Dew Point 25 °F    
Average Humidity 35    
Maximum Humidity 54    
Minimum Humidity 15    
Precipitation  
Precipitation 0.00 in 0.12 in 1.12 in (1947)
Month to date precipitation 0.00 0.80  
Year to date precipitation 5.74 5.59  
Snow  
Snow 0.00 in 0.00 in 3.90 in (1947)
Month to date snowfall 0.0 0.1  
Since 1 July snowfall 0.8 1.5  
Snow Depth 0.00 in    
Sea Level Pressure  
Sea Level Pressure 30.15 in    
Wind  
Wind Speed 11 mph (SSE)    
Max Wind Speed 24 mph    
Max Gust Speed 30 mph    
Visibility 10 miles    
Events      
T = Trace of Precipitation, MM = Missing Value Source: NWS Daily Summary

Daily Weather History Graph

Daily Weather History Graph

Search for Another Location

Airport or City:

Trip Planner

Search our weather history database for the weather conditions in past years. The results will help you decide how hot, cold, wet, or windy it might be!

Date:

Astronomy

Mar. 07, 2013 Rise Set
Actual Time 6:48 AM CST 6:30 PM CST
Civil Twilight 6:23 AM CST 6:54 PM CST
Nautical Twilight 5:55 AM CST 7:23 PM CST
Astronomical Twilight 5:26 AM CST 7:52 PM CST
Moon 3:37 AM CST (3/7) 2:30 PM CST (3/7)
Length of Visible Light 12h 31m
Length of Day
11h 41m
Waning Crescent, 20% of the Moon is Illuminated
Mar 7
Waning Crescent
Mar 11
New
Mar 19
First Quarter
Mar 27
Full
Apr 2
Last Quarter

Hourly Weather History & Observations

Time (CST) Temp. Windchill Dew Point Humidity Pressure Visibility Wind Dir Wind Speed Gust Speed Precip Events Conditions
12:53 AM 43.0 °F 39.5 °F 19.9 °F 40% 30.18 in 10.0 mi SE 5.8 mph - N/A   Mostly Cloudy
1:53 AM 45.0 °F 41.8 °F 19.0 °F 36% 30.17 in 10.0 mi SSE 5.8 mph - N/A   Mostly Cloudy
2:53 AM 45.0 °F 43.5 °F 19.0 °F 36% 30.17 in 10.0 mi East 3.5 mph - N/A   Mostly Cloudy
3:53 AM 44.1 °F 40.8 °F 19.9 °F 38% 30.16 in 10.0 mi ESE 5.8 mph - N/A   Mostly Cloudy
4:53 AM 41.0 °F 38.0 °F 21.9 °F 47% 30.17 in 10.0 mi SE 4.6 mph - N/A   Mostly Cloudy
5:53 AM 42.1 °F - 21.9 °F 45% 30.19 in 10.0 mi Calm Calm - N/A   Mostly Cloudy
6:53 AM 39.0 °F 34.8 °F 24.1 °F 55% 30.20 in 10.0 mi ESE 5.8 mph - N/A   Scattered Clouds
7:53 AM 46.0 °F 41.9 °F 25.0 °F 44% 30.21 in 10.0 mi ESE 8.1 mph - N/A   Scattered Clouds
8:53 AM 52.0 °F - 25.0 °F 35% 30.23 in 10.0 mi SSE 8.1 mph - N/A   Scattered Clouds
9:53 AM 57.9 °F - 26.1 °F 30% 30.22 in 10.0 mi SSE 10.4 mph - N/A   Partly Cloudy
10:53 AM 64.0 °F - 24.1 °F 22% 30.22 in 10.0 mi South 19.6 mph - N/A   Partly Cloudy
11:53 AM 66.0 °F - 24.1 °F 20% 30.19 in 10.0 mi South 18.4 mph - N/A   Partly Cloudy
12:53 PM 68.0 °F - 25.0 °F 20% 30.15 in 10.0 mi South 18.4 mph 24.2 mph N/A   Partly Cloudy
1:53 PM 71.1 °F - 21.9 °F 16% 30.12 in 10.0 mi South 16.1 mph - N/A   Partly Cloudy
2:53 PM 71.1 °F - 21.0 °F 15% 30.10 in 10.0 mi SSE 16.1 mph - N/A   Partly Cloudy
3:53 PM 72.0 °F - 23.0 °F 16% 30.09 in 10.0 mi SSE 17.3 mph - N/A   Partly Cloudy
4:53 PM 71.1 °F - 21.9 °F 16% 30.08 in 10.0 mi SSE 16.1 mph - N/A   Scattered Clouds
5:53 PM 66.9 °F - 24.1 °F 20% 30.09 in 10.0 mi SSE 17.3 mph - N/A   Mostly Cloudy
6:53 PM 64.0 °F - 28.0 °F 26% 30.11 in 10.0 mi SSE 10.4 mph - N/A   Mostly Cloudy
7:53 PM 60.1 °F - 30.0 °F 32% 30.11 in 10.0 mi SE 10.4 mph - N/A   Mostly Cloudy
8:53 PM 57.9 °F - 32.0 °F 37% 30.12 in 10.0 mi SE 9.2 mph - N/A   Mostly Cloudy
9:53 PM 60.1 °F - 33.1 °F 36% 30.11 in 10.0 mi SSE 13.8 mph - N/A   Mostly Cloudy
10:53 PM 60.1 °F - 34.0 °F 38% 30.11 in 10.0 mi SSE 13.8 mph - N/A   Mostly Cloudy
11:53 PM 57.9 °F - 36.0 °F 44% 30.09 in 10.0 mi SSE 13.8 mph - N/A   Mostly Cloudy